Wind_Speed
74 70 70 69 66 62 62 62 63 61 64 63 65 62 61 63 59 61 64 61 58 59 58 56 57 59 60 56 55 54 56 52 51 51 48 48 48 50 48 47 46 45 40 45 47
80 79 77 73 71 68 63 63 63 64 61 68 68 68 63 63 66 62 64 66 65 61 63 64 65 62 64 66 58 59 57 54 52 52 51 51 54 50 50 46 49 45 39 41 47
87 85 83 83 79 72 72 66 67 66 67 67 72 73 72 67 73 63 65 62 65 63 59 62 63 66 67 67 62 59 52 48 49 51 47 53 52 51 50 44 50 49 43 45 50
81 86 90 91 90 86 80 76 72 70 68 68 69 74 71 69 71 63 70 70 63 63 63 62 58 62 62 53 51 50 52 47 44 53 52 54 49 43 43 40 43 52 50 51 52
84 80 81 85 90 90 87 87 87 77 71 70 69 71 72 68 75 67 67 68 67 66 62 62 60 61 54 50 48 48 49 49 50 54 55 50 47 50 50 51 40 46 51 50 48
86 85 85 80 84 89 89 90 86 79 73 72 71 71 71 72 74 65 67 67 65 63 57 57 56 53 47 49 51 49 52 51 53 51 53 50 50 49 50 48 46 47 50 51 51
89 86 81 79 76 82 83 82 76 71 70 69 70 68 65 71 67 63 66 64 64 59 56 57 52 54 53 50 51 50 50 52 51 50 50 51 47 47 50 49 49 50 49 50 50
89 86 80 76 77 78 83 84 81 74 68 65 65 64 62 68 64 66 59 61 59 58 57 54 51 54 50 51 52 49 45 48 50 50 50 51 51 46 52 48 48 51 52 50 49
93 87 83 82 78 74 78 74 71 66 67 64 66 65 60 63 61 55 51 55 55 58 56 54 51 54 52 47 44 47 48 48 51 51 51 50 50 48 50 52 51 52 47 44 44
97 94 93 89 84 80 79 77 70 67 64 64 63 62 59 58 53 53 55 53 53 55 56 57 50 46 50 49 50 51 47 52 49 48 44 46 48 50 50 48 49 52 53 51 46
101 99 96 89 92 87 86 83 76 70 66 65 63 66 62 60 53 53 56 48 53 57 57 54 51 53 50 49 54 53 55 55 54 49 49 49 46 49 47 44 45 46 50 51 57
102 99 96 94 91 89 87 88 84 79 72 67 66 63 67 65 58 56 59 59 56 58 61 56 50 53 54 52 56 59 59 58 61 57 59 55 50 56 52 51 47 44 47 49 53
100 100 102 97 95 93 91 90 84 83 78 65 72 70 74 72 59 62 64 67 63 58 61 59 62 61 57 53 57 61 62 62 62 64 59 59 55 59 66 57 48 51 55 55 59
106 102 99 101 96 99 97 98 88 86 84 71 76 71 74 76 62 69 72 69 67 60 67 66 67 66 61 58 59 60 65 65 66 68 67 70 61 61 63 59 56 57 64 62 62
109 110 104 101 101 103 102 100 97 91 90 79 75 72 77 78 75 76 76 72 71 71 71 67 70 69 68 68 68 66 72 70 69 70 68 67 72 62 68 66 66 67 65 68 69
114 113 112 108 105 110 107 107 99 102 95 86 76 75 78 84 82 76 77 74 75 76 74 70 73 76 76 72 72 72 74 73 73 73 70 67 74 62 70 74 71 72 73 74 80
123 117 116 113 114 114 112 115 112 108 101 96 91 85 84 84 82 83 79 79 78 79 77 80 76 80 81 76 77 77 76 79 80 78 73 76 79 73 70 74 79 78 78 81 85
129 128 121 120 122 120 119 121 112 108 105 108 101 98 90 90 88 89 88 83 84 82 82 82 80 83 87 81 83 82 84 85 86 86 80 78 82 85 79 77 81 83 83 82 86
136 133 129 125 128 127 126 132 116 104 101 112 112 107 96 99 95 94 95 91 90 89 91 89 87 89 90 87 86 88 88 90 93 90 85 82 85 87 86 84 86 88 88 90 91
145 142 134 134 137 134 137 136 116 109 108 118 119 111 105 103 103 102 100 97 96 97 99 95 94 94 94 97 96 93 92 96 95 92 90 83 84 87 86 89 95 97 98 100 100
143 146 141 145 144 141 142 131 118 115 118 122 121 116 113 110 112 111 108 108 107 106 106 101 104 99 97 96 96 94 95 98 99 96 93 88 88 90 93 96 98 101 105 108 105
141 143 130 143 149 149 147 135 123 121 121 126 129 123 116 114 113 113 110 107 109 109 113 110 111 105 101 101 102 101 99 100 97 95 97 96 96 96 99 101 103 107 108 110 109
137 137 130 141 144 142 141 142 135 129 125 127 131 126 124 120 118 113 112 113 110 109 110 109 114 109 110 107 104 106 101 101 103 103 101 101 99 98 99 104 108 109 111 113 114
129 133 132 136 137 137 137 133 138 137 136 138 136 133 126 121 122 118 118 114 115 114 112 112 113 112 111 108 107 107 106 105 107 109 105 102 102 103 106 112 113 116 113 117 115
119 121 125 125 121 130 134 130 130 133 134 141 142 135 132 126 124 121 120 118 118 115 116 118 119 117 112 111 112 111 110 109 112 109 111 108 110 107 113 113 116 116 114 116 119
104 110 117 114 113 116 123 121 123 128 127 129 136 137 140 134 132 131 128 123 121 117 116 119 120 119 118 118 120 119 111 111 113 119 120 118 110 109 114 115 115 116 116 120 125
89 99 105 110 106 102 103 103 109 118 119 123 126 130 133 137 135 134 136 133 129 127 128 130 130 129 127 125 128 124 112 117 117 116 115 116 112 116 119 118 119 124 126 123 124
Wind_Direction
263 262 261 265 266 267 264 263 267 272 275 273 277 274 276 275 274 276 277 282 284 285 290 289 288 286 291 289 288 286 293 295 298 291 304 303 292 295 294 300 294 284 283 282 284
260 263 263 265 265 268 269 269 273 272 277 271 272 273 275 276 274 274 275 276 280 280 285 287 291 288 288 291 292 293 292 296 296 297 297 297 295 290 293 292 290 286 283 282 284
260 263 262 265 266 267 272 270 274 276 274 277 272 271 272 273 274 277 275 279 279 274 278 283 285 289 290 292 291 291 287 295 294 290 290 298 296 286 286 287 286 288 283 279 278
262 263 264 265 267 269 269 271 274 276 278 275 274 272 272 272 273 276 275 276 278 279 278 279 283 285 287 284 288 285 287 293 290 289 294 294 291 302 292 286 285 286 286 285 281
268 267 265 265 263 266 269 271 275 274 274 274 273 271 272 270 271 274 272 278 279 279 278 280 280 283 281 283 282 286 290 291 295 292 294 290 285 292 293 297 287 282 287 288 284
269 267 267 265 262 263 265 268 270 271 273 274 271 273 271 272 271 272 270 275 276 276 278 280 278 277 281 284 286 285 288 293 293 294 296 290 290 292 289 290 294 287 283 284 286
269 267 268 267 265 265 264 265 268 270 271 272 272 271 271 270 269 267 271 272 273 272 276 277 276 274 276 282 284 289 292 293 291 293 293 292 298 295 290 292 293 292 288 286 286
267 268 267 264 263 264 264 267 270 269 270 269 268 267 269 265 268 269 268 267 269 271 274 273 275 277 277 280 282 286 286 292 294 293 295 298 295 290 286 288 291 291 290 292 293
266 266 266 265 263 262 263 265 266 268 268 267 270 266 263 265 267 267 262 268 267 268 272 272 268 273 274 280 280 282 289 289 290 294 297 296 292 284 284 289 291 291 289 290 294
264 267 265 264 263 262 266 266 265 265 269 269 267 265 265 264 264 264 264 267 268 271 272 270 272 277 280 282 283 286 284 287 293 295 296 301 299 289 284 287 291 290 294 295 294
263 265 266 266 267 265 264 265 264 265 266 269 266 267 265 262 264 266 265 266 270 271 269 275 274 277 280 283 285 282 286 287 288 289 290 297 300 297 297 296 291 292 294 294 299
260 263 264 266 265 266 266 268 264 263 263 266 267 264 266 263 267 263 262 262 266 266 269 270 270 275 281 281 284 287 285 285 289 290 290 296 293 297 298 301 302 290 294 299 299
257 261 259 263 264 266 265 264 264 264 263 261 266 267 264 267 265 265 262 267 270 271 270 274 272 274 275 280 282 286 287 285 288 295 294 293 295 294 294 295 289 292 295 297 302
259 258 259 260 263 263 265 263 262 263 262 256 257 265 267 267 267 270 266 264 268 271 266 271 275 273 275 278 280 282 284 288 292 292 293 295 296 296 291 286 287 292 299 299 294
254 257 260 259 261 263 264 265 263 262 263 256 254 258 262 264 263 267 266 263 263 260 264 271 273 275 277 277 278 281 283 288 288 289 292 295 293 290 288 289 292 296 297 296 295
253 254 254 256 258 261 262 264 264 264 263 260 257 255 258 265 265 263 263 264 262 263 266 269 270 274 275 277 280 280 281 284 286 289 293 290 284 291 287 292 294 296 299 297 296
248 251 252 254 254 255 259 260 259 263 265 262 262 257 256 260 263 264 262 262 264 264 266 265 269 272 276 279 279 278 280 283 284 286 288 289 289 290 288 288 293 296 297 297 298
249 248 252 252 254 255 255 254 255 261 263 266 261 262 259 257 259 264 264 263 264 265 266 267 269 272 273 274 277 280 281 283 283 284 287 290 289 289 288 289 291 292 293 295 295
245 249 250 250 252 252 254 256 254 256 257 260 261 260 259 260 257 259 263 263 264 267 267 268 268 268 270 274 274 279 280 279 282 284 285 287 289 289 292 292 291 292 293 293 294
243 245 247 247 249 249 252 252 252 253 256 257 259 258 258 259 259 260 260 264 265 266 268 267 267 269 271 273 275 278 276 275 278 282 285 288 287 288 288 291 294 295 294 296 297
244 245 245 245 245 246 249 251 251 251 253 255 254 254 257 258 260 260 262 261 262 265 268 268 269 270 271 273 275 275 277 279 281 282 283 283 284 286 289 291 292 293 294 297 299
245 244 242 244 244 246 246 246 244 245 249 251 251 252 254 254 256 259 260 259 261 264 266 267 268 269 269 269 271 273 274 276 278 279 278 280 283 285 287 288 289 290 292 294 297
245 247 243 243 245 246 246 245 243 243 244 246 250 252 251 252 253 256 259 259 260 262 264 265 266 265 265 267 270 271 271 273 276 278 279 279 284 285 287 288 289 290 291 294 295
247 247 246 243 245 246 245 243 244 242 241 242 244 246 249 251 254 254 254 258 260 262 263 265 266 267 268 270 271 271 272 274 275 277 280 283 284 287 287 286 288 289 291 293 293
247 248 248 248 248 247 246 245 243 243 244 242 244 245 247 246 249 251 254 257 258 259 261 262 263 265 267 269 271 272 274 277 278 279 279 280 282 285 285 285 287 290 292 291 291
245 246 248 250 250 248 248 248 247 245 246 246 246 245 246 246 245 246 249 251 252 254 257 261 264 265 266 266 266 268 272 273 274 276 279 280 282 281 281 285 287 288 290 290 291
244 244 246 247 248 248 248 248 248 247 245 246 247 247 247 247 246 248 250 250 251 254 256 256 259 261 263 265 267 270 272 272 273 275 276 279 280 281 283 285 286 287 289 291 291
Height
10794 10797 10798 10798 10800 10802 10804 10805 10806 10806 10807 10809 10811 10812 10814 10814 10815 10819 10812 10815 10814 10814 10812 10812 10813 10811 10809 10807 10802 10800 10797 10793 10792 10786 10794 10792 10789 10787 10785 10784 10784 10784 10788 10780 10776
10778 10781 10782 10784 10785 10787 10789 10791 10793 10794 10796 10797 10799 10802 10804 10806 10804 10810 10804 10801 10804 10802 10803 10801 10801 10799 10797 10794 10791 10789 10784 10785 10781 10782 10779 10779 10780 10778 10776 10775 10766 10770 10777 10774 10768
10761 10763 10766 10769 10772 10773 10775 10778 10780 10781 10782 10784 10787 10788 10790 10795 10793 10799 10791 10790 10792 10791 10791 10790 10789 10788 10785 10785 10781 10778 10772 10776 10773 10765 10773 10771 10769 10767 10767 10768 10757 10757 10762 10765 10764
10744 10747 10751 10752 10755 10757 10760 10763 10764 10766 10768 10770 10774 10776 10775 10783 10779 10787 10775 10779 10781 10780 10779 10779 10778 10777 10773 10774 10773 10767 10765 10768 10766 10749 10759 10764 10759 10756 10756 10760 10756 10745 10749 10751 10752
10727 10730 10732 10735 10739 10742 10745 10747 10749 10752 10753 10756 10760 10762 10763 10770 10762 10776 10764 10764 10767 10768 10768 10766 10766 10765 10763 10763 10763 10759 10756 10759 10758 10746 10745 10750 10751 10753 10739 10745 10750 10743 10736 10738 10739
10707 10711 10715 10718 10722 10726 10728 10731 10734 10736 10738 10740 10745 10748 10752 10752 10752 10759 10751 10755 10754 10754 10755 10754 10752 10753 10753 10751 10751 10752 10747 10748 10744 10743 10738 10736 10740 10740 10732 10729 10734 10734 10732 10728 10728
10687 10692 10695 10701 10705 10708 10711 10715 10717 10719 10721 10726 10730 10734 10741 10730 10736 10745 10739 10741 10740 10742 10743 10742 10741 10740 10741 10740 10739 10740 10738 10737 10734 10734 10731 10726 10731 10729 10721 10721 10721 10721 10721 10719 10718
10668 10672 10677 10683 10688 10691 10694 10697 10700 10702 10707 10712 10715 10721 10730 10712 10725 10727 10730 10724 10728 10730 10731 10729 10731 10729 10730 10729 10728 10728 10727 10726 10724 10724 10721 10719 10718 10720 10709 10712 10712 10709 10709 10708 10704
10648 10652 10657 10663 10667 10673 10675 10679 10683 10686 10691 10697 10700 10709 10709 10706 10708 10713 10714 10713 10717 10717 10718 10718 10718 10719 10718 10717 10717 10714 10715 10716 10714 10714 10710 10709 10709 10708 10704 10700 10700 10698 10700 10698 10695
10625 10629 10635 10642 10646 10653 10657 10661 10664 10671 10677 10682 10686 10693 10690 10693 10695 10696 10700 10703 10704 10705 10706 10706 10709 10708 10704 10707 10704 10704 10703 10702 10704 10704 10701 10696 10700 10698 10696 10695 10691 10687 10686 10687 10682
10606 10609 10612 10619 10623 10630 10636 10641 10647 10655 10663 10665 10671 10675 10678 10680 10682 10683 10687 10691 10691 10694 10691 10696 10700 10694 10694 10695 10692 10691 10691 10688 10691 10694 10691 10689 10685 10683 10686 10685 10685 10682 10677 10676 10671
10584 10589 10593 10598 10603 10606 10614 10618 10628 10635 10648 10651 10653 10662 10657 10661 10673 10673 10673 10674 10677 10678 10679 10684 10685 10680 10683 10683 10680 10678 10679 10677 10672 10680 10680 10680 10676 10664 10673 10676 10675 10673 10669 10669 10660
10563 10568 10573 10578 10581 10584 10589 10596 10605 10614 10625 10641 10637 10639 10638 10642 10662 10660 10657 10657 10660 10662 10665 10669 10669 10669 10671 10671 10669 10664 10665 10662 10663 10658 10661 10663 10668 10664 10652 10659 10660 10663 10662 10660 10650
10540 10545 10552 10556 10560 10561 10564 10570 10585 10592 10601 10629 10614 10631 10628 10626 10648 10644 10638 10639 10644 10649 10644 10656 10653 10654 10656 10659 10655 10653 10648 10650 10649 10646 10645 10638 10649 10647 10637 10639 10644 10646 10648 10646 10640
10518 10521 10529 10536 10539 10540 10540 10548 10560 10571 10571 10595 10610 10615 10608 10609 10618 10623 10622 10627 10629 10627 10629 10642 10637 10639 10642 10642 10640 10643 10633 10638 10635 10632 10634 10630 10618 10634 10617 10623 10627 10631 10629 10626 10620
10489 10497 10505 10514 10521 10511 10519 10525 10537 10538 10554 10572 10588 10597 10595 10592 10594 10605 10606 10609 10608 10610 10614 10622 10620 10620 10622 10628 10626 10625 10620 10621 10617 10617 10626 10618 10601 10625 10606 10602 10608 10608 10607 10603 10595
10463 10472 10482 10489 10487 10493 10499 10500 10506 10520 10537 10545 10558 10567 10573 10580 10576 10580 10590 10588 10589 10590 10602 10598 10605 10602 10603 10613 10609 10608 10608 10605 10602 10601 10608 10599 10589 10595 10600 10594 10588 10587 10588 10584 10574
10429 10442 10455 10464 10456 10467 10468 10463 10484 10517 10520 10516 10529 10535 10554 10557 10561 10558 10565 10575 10574 10572 10577 10581 10591 10586 10581 10595 10594 10592 10590 10591 10582 10584 10593 10587 10579 10569 10577 10580 10574 10570 10571 10571 10562
10391 10407 10427 10430 10424 10435 10432 10426 10476 10502 10506 10488 10491 10512 10527 10528 10538 10538 10542 10552 10553 10557 10555 10561 10569 10566 10566 10573 10576 10580 10579 10570 10565 10567 10571 10572 10564 10553 10552 10552 10550 10548 10547 10546 10543
10352 10371 10398 10385 10393 10400 10391 10405 10464 10483 10486 10461 10466 10486 10498 10502 10510 10515 10521 10532 10533 10533 10533 10542 10541 10547 10550 10552 10558 10560 10553 10551 10553 10555 10548 10556 10544 10538 10539 10535 10527 10519 10516 10515 10517
10311 10325 10372 10351 10346 10356 10362 10396 10441 10460 10454 10436 10438 10462 10474 10480 10478 10488 10498 10507 10512 10514 10511 10523 10514 10530 10533 10533 10534 10536 10531 10530 10532 10535 10530 10534 10529 10527 10523 10518 10511 10501 10492 10491 10497
10272 10281 10337 10305 10303 10327 10344 10382 10412 10420 10420 10416 10407 10433 10454 10454 10454 10459 10469 10478 10489 10493 10494 10500 10492 10508 10508 10511 10509 10516 10518 10510 10514 10513 10509 10515 10517 10510 10509 10503 10494 10485 10479 10476 10480
10234 10245 10285 10269 10271 10297 10325 10342 10368 10388 10400 10396 10388 10404 10417 10428 10434 10445 10446 10448 10462 10465 10464 10474 10464 10482 10485 10492 10498 10488 10495 10493 10490 10490 10496 10492 10498 10494 10489 10475 10466 10464 10463 10462 10457
10203 10213 10231 10237 10252 10264 10282 10312 10329 10350 10360 10356 10366 10372 10390 10406 10410 10423 10418 10421 10435 10443 10443 10445 10445 10451 10454 10462 10468 10468 10469 10474 10470 10464 10471 10480 10478 10470 10461 10451 10448 10439 10449 10439 10437
10170 10184 10197 10205 10225 10242 10253 10280 10294 10306 10321 10330 10331 10358 10368 10382 10388 10392 10394 10408 10411 10419 10416 10415 10423 10431 10432 10434 10438 10443 10447 10450 10444 10447 10443 10460 10456 10458 10438 10430 10426 10423 10422 10414 10405
10146 10161 10167 10185 10193 10209 10221 10241 10265 10283 10289 10310 10311 10333 10330 10347 10358 10360 10365 10380 10385 10395 10394 10392 10396 10405 10411 10414 10414 10414 10439 10435 10430 10422 10421 10425 10441 10427 10413 10412 10409 10405 10396 10394 10389
10124 10137 10144 10153 10167 10179 10200 10225 10240 10252 10260 10274 10283 10293 10304 10317 10324 10341 10340 10351 10361 10368 10370 10373 10378 10379 10384 10388 10383 10394 10425 10409 10405 10404 10403 10401 10411 10400 10391 10394 10391 10380 10371 10369 10367